Location: Zapote
(9.9191°N, 84.0597°W)
Time: 23:48:38
(UTC-06:00)

Envisat - Pass Details

Date: 02 February 2021
Orbit: 764 x 766 km, 98.1° (Epoch: 02 March)

Event Time Altitude Azimuth Distance (km) Brightness Sun altitude
Rises 18:04:42 0° 211° (SSW) 3,223 7.0 -6.3°
Reaches altitude 10° 18:09:08 10° 247° (WSW) 2,297 7.2 -7.3°
Maximum altitude 18:10:16 11° 260° (W) 2,248 7.1 -7.6°
Drops below altitude 10° 18:11:24 10° 274° (W) 2,297 6.8 -7.9°
Sets 18:15:51 0° 311° (NW) 3,222 6.7 -8.9°
